Location: Altavilla Irpina
(41.0000°N, 14.7833°E)
Time: 00:31:20
(UTC+00:00)

Cosmos 2181 Rocket - Pass Details

Date: 19 May 2025
Orbit: 952 x 1013 km, 82.9° (Epoch: 15 June)

Event Time Altitude Azimuth Distance (km) Brightness Sun altitude
Exits shadow 20:58:42 35° 195° (SSW) 1,523 4.6 -23.1°
Maximum altitude 21:01:32 80° 278° (W) 1,004 4.0 -23.4°
Drops below altitude 10° 21:07:54 10° 5° (N) 2,772 7.1 -23.9°
Sets 21:10:28 0° 7° (N) 3,734 7.9 -24.2°
